SL-3 R/B, 5918

Orbit data source: Space-Track

SL-3 R/B, 5918 is space debris in LEO originally from a launch on Thu, 30 Mar 1972 UTC launched from the Plesetsk Missile And Space Complex (PKMTR). Debris objects in space refer to the collection of defunct objects orbiting the Earth. Examples of debris include non-operational satellites, rocket bodies, and fragments generated from explosions, collisions, or faulty payload assembly.

Loading next visibility...
Identifier
5918, 1972-022B
Orbit
LEO
Country
Flag of CISCIS
Related business
Manufacturer
Progress
Mission
Spacecraft
Bus & Motor
BLOK-E, Unknown motor
Mass
1,440 kg wet, 1,440 kg dry
Launch date (UTC)
1972-03-30 (54 years ago)
Launch vehicle
Unknown
Launch site
Plesetsk Missile And Space Complex (PKMTR)
Object type
Payload
Rocket body
Debris
Shape & HBR
Unknown
Radar Cross Section
Large (>1 m²)

Expand to show TLE details & history
Last TLE update: 2 days ago

TLE from 2 days ago
0 SL-3 R/B
1  5918U 72022B   26171.29880074 -.00000071  00000-0 -50458-4 0  9997
2  5918  81.2374  22.4634 0059565  80.2490 280.5399 14.06314509780053
Epoch: 2026-06-20T07:10Z
TLE epoch observation values (Epoch: 2026-06-20T07:10:16.383Z)
Latitude
-0.00003°
Longitude
6.37971°
Altitude
867.253 km
Speed
7.423 km/s
True Right ascension
01h 29m 51s
True Declination
0° 00' 00"
Sunlit
Object was in daylight at epoch
Visualization orbit readout
Latitude
Unknown
Longitude
Unknown
Altitude
Unknown
Speed
Unknown
Apparent Right ascension
Unknown
Apparent Declination
Unknown
Sunlit
N/A
Visualization observer readout
Local Sidereal Time
23:20:03
Azimuth
Unknown
Elevation
Unknown
Doppler factor
Unknown
Orbital elements
Apogee altitude
912.359 km
Perigee altitude
826.022 km
Semi-major axis
7,247.327 km
Eccentricity
0.00596
Inclination
81.2374°
RAAN
22.4634°
Arg. of periapsis
80.249°
True anomaly
279.86795°
Mean anomaly
280.5399°
Eccentric anomaly
280.20402°
Mean motion
3.51784 °/min
Orbital period
102.34 mins
BSTAR
-0.000050458
Loading maneuver chart data...
Computing Atmospheric mass density...
Loading historical data...
Loading historical data...
Loading historical data...
Loading historical data...
Loading historical data...
Loading historical data...
Loading historical data...

Documentation

Showing up to 5 results
|